,,,PA_Meas_PMT16A,,PR_Meas_QMR101_102,,RH_Meas_QMH101,,SR_Meas_QMS101,,TA_Meas_QMH101,,GenWind,,GenWind,
date,time,status,PA,status,PR,status,RH,status,SR,status,TA,status,DirAvg,status,SpdAvg,
2009-11-18, 00:00:04,VALID,1001.59,VALID,0,VALID,92.4163,VALID,0,VALID,24.7724,VALID,353,VALID,0,
2009-11-18, 00:01:04,VALID,1001.54,VALID,0,VALID,92.5002,VALID,0,VALID,24.7724,VALID,353,VALID,0,
2009-11-18, 00:02:04,VALID,1001.55,VALID,0,VALID,92.5765,VALID,0,VALID,24.7335,VALID,353,VALID,0,
2009-11-18, 00:03:04,VALID,1001.5,VALID,0,VALID,92.6604,VALID,0,VALID,24.7529,VALID,353,VALID,0,
2009-11-18, 00:04:04,VALID,1001.49,VALID,0,VALID,92.7062,VALID,0,VALID,24.7529,VALID,353,VALID,0,
2009-11-18, 00:05:04,VALID,1001.48,VALID,0,VALID,92.7443,VALID,0,VALID,24.7761,VALID,353,VALID,0,
2009-11-18, 00:06:04,VALID,1001.46,VALID,0,VALID,92.7748,VALID,0,VALID,24.7335,VALID,353,VALID,0,
2009-11-18, 00:07:04,VALID,1001.46,VALID,0,VALID,92.7901,VALID,0,VALID,24.714,VALID,353,VALID,0.507031,
2009-11-18, 00:08:04,VALID,1001.5,VALID,0,VALID,92.7824,VALID,0,VALID,24.675,VALID,353,VALID,0.389453,
2009-11-18, 00:09:04,VALID,1001.48,VALID,0,VALID,92.8053,VALID,0,VALID,24.7159,VALID,353,VALID,0.00585938,
2009-11-18, 00:10:04,VALID,1001.51,VALID,0,VALID,92.8664,VALID,0,VALID,24.675,VALID,353,VALID,0,
2009-11-18, 00:11:04,VALID,1001.49,VALID,0,VALID,92.9274,VALID,0,VALID,24.6964,VALID,353,VALID,0.410937,
2009-11-18, 00:12:04,VALID,1001.47,VALID,0,VALID,92.9503,VALID,0,VALID,24.6556,VALID,353,VALID,0.444531,
2009-11-18, 00:13:04,VALID,1001.47,VALID,0,VALID,92.9884,VALID,0,VALID,24.6361,VALID,353,VALID,0.396094,
2009-11-18, 00:14:04,VALID,1001.4,VALID,0,VALID,93.0342,VALID,0,VALID,24.6574,VALID,353,VALID,0.272656,
2009-11-18, 00:15:04,VALID,1001.37,VALID,0,VALID,93.0342,VALID,0,VALID,24.5972,VALID,353,VALID,0.217187,
2009-11-18, 00:16:04,VALID,1001.36,VALID,0,VALID,93.08,VALID,0,VALID,24.5972,VALID,353,VALID,0.267578,
2009-11-18, 00:17:04,VALID,1001.3,VALID,0,VALID,93.1029,VALID,0,VALID,24.5972,VALID,353,VALID,0,
2009-11-18, 00:18:04,VALID,1001.33,VALID,0,VALID,93.1715,VALID,0.100563,VALID,24.5972,VALID,353,VALID,0,
2009-11-18, 00:19:04,VALID,1001.29,VALID,0,VALID,93.2249,VALID,0,VALID,24.5777,VALID,353,VALID,0,
2009-11-18, 00:20:04,VALID,1001.31,VALID,0,VALID,93.3088,VALID,0,VALID,24.5972,VALID,353,VALID,0,
2009-11-18, 00:21:04,VALID,1001.29,VALID,0,VALID,93.3165,VALID,0,VALID,24.5972,VALID,353,VALID,0,
2009-11-18, 00:22:04,VALID,1001.26,VALID,0,VALID,93.3088,VALID,0,VALID,24.5972,VALID,353,VALID,0,
2009-11-18, 00:23:04,VALID,1001.25,VALID,0,VALID,93.2936,VALID,0,VALID,24.6185,VALID,353,VALID,0,
2009-11-18, 00:24:04,VALID,1001.18,VALID,0,VALID,93.3317,VALID,0,VALID,24.6166,VALID,353,VALID,0,
2009-11-18, 00:25:04,VALID,1001.18,VALID,0,VALID,93.3317,VALID,0,VALID,24.6166,VALID,353,VALID,0,
2009-11-18, 00:26:04,VALID,1001.15,VALID,0,VALID,93.2936,VALID,0,VALID,24.6166,VALID,353,VALID,0,
2009-11-18, 00:27:04,VALID,1001.1,VALID,0,VALID,93.2631,VALID,0,VALID,24.6166,VALID,352,VALID,0,
2009-11-18, 00:28:04,VALID,1001.11,VALID,0,VALID,93.2325,VALID,0,VALID,24.6556,VALID,352,VALID,0,
2009-11-18, 00:29:04,VALID,1001.08,VALID,0,VALID,93.1944,VALID,0,VALID,24.6945,VALID,352,VALID,0,
2009-11-18, 00:30:04,VALID,1001.05,VALID,0,VALID,93.1105,VALID,0,VALID,24.7335,VALID,350,VALID,0,
2009-11-18, 00:31:04,VALID,1000.99,VALID,0,VALID,92.9198,VALID,0,VALID,24.7724,VALID,350,VALID,0.101563,
2009-11-18, 00:32:04,VALID,1001,VALID,0,VALID,92.7214,VALID,0,VALID,24.8308,VALID,343,VALID,0.230078,
2009-11-18, 00:33:04,VALID,1001,VALID,0,VALID,92.4391,VALID,0,VALID,24.8697,VALID,338,VALID,0.444922,
2009-11-18, 00:34:04,VALID,1000.97,VALID,0,VALID,92.073,VALID,0,VALID,24.9087,VALID,345,VALID,0.367578,
2009-11-18, 00:35:04,VALID,1000.94,VALID,0,VALID,91.7068,VALID,0,VALID,24.9671,VALID,339,VALID,0.441797,
2009-11-18, 00:36:04,VALID,1000.91,VALID,0,VALID,91.3024,VALID,0,VALID,25.0255,VALID,336,VALID,0.0289063,
2009-11-18, 00:37:04,VALID,1000.84,VALID,0,VALID,90.9973,VALID,0,VALID,25.0839,VALID,336,VALID,0,
2009-11-18, 00:38:04,VALID,1000.82,VALID,0,VALID,90.6845,VALID,0,VALID,25.1229,VALID,342,VALID,0.588281,
2009-11-18, 00:39:04,VALID,1000.8,VALID,0,VALID,90.2802,VALID,0,VALID,25.2027,VALID,344,VALID,0.34375,
2009-11-18, 00:40:04,VALID,1000.78,VALID,0,VALID,89.9292,VALID,0,VALID,25.2397,VALID,344,VALID,0.417578,
2009-11-18, 00:41:04,VALID,1000.82,VALID,0,VALID,89.6622,VALID,0,VALID,25.2786,VALID,344,VALID,0.372656,
2009-11-18, 00:42:04,VALID,1000.81,VALID,0,VALID,89.3494,VALID,0,VALID,25.2981,VALID,344,VALID,0.356641,
2009-11-18, 00:43:04,VALID,1000.84,VALID,0,VALID,89.2426,VALID,0,VALID,25.339,VALID,344,VALID,0.0515625,
2009-11-18, 00:44:04,VALID,1000.85,VALID,0,VALID,89.1969,VALID,0,VALID,25.339,VALID,344,VALID,0.332812,
2009-11-18, 00:45:04,VALID,1000.86,VALID,0,VALID,89.2045,VALID,0,VALID,25.3584,VALID,344,VALID,0,
2009-11-18, 00:46:04,VALID,1000.86,VALID,0,VALID,89.2121,VALID,0,VALID,25.3584,VALID,343,VALID,0.0582031,
2009-11-18, 00:47:04,VALID,1000.82,VALID,0,VALID,89.1358,VALID,0,VALID,25.3584,VALID,343,VALID,0.0222656,
2009-11-18, 00:48:04,VALID,1000.82,VALID,0,VALID,89.1282,VALID,0,VALID,25.3584,VALID,343,VALID,0,
2009-11-18, 00:49:04,VALID,1000.81,VALID,0,VALID,89.0824,VALID,0,VALID,25.3779,VALID,334,VALID,0.208984,
2009-11-18, 00:50:04,VALID,1000.79,VALID,0,VALID,88.8993,VALID,0,VALID,25.3993,VALID,338,VALID,0.491016,
2009-11-18, 00:51:04,VALID,1000.78,VALID,0,VALID,88.7925,VALID,0,VALID,25.4363,VALID,338,VALID,0.296484,
2009-11-18, 00:52:04,VALID,1000.77,VALID,0,VALID,88.7468,VALID,0,VALID,25.4363,VALID,338,VALID,0.430469,
2009-11-18, 00:53:04,VALID,1000.76,VALID,0,VALID,88.8383,VALID,0,VALID,25.4558,VALID,338,VALID,0.294531,
2009-11-18, 00:54:04,VALID,1000.75,VALID,0,VALID,88.8688,VALID,0,VALID,25.4188,VALID,338,VALID,0.243359,
2009-11-18, 00:55:04,VALID,1000.76,VALID,0,VALID,89.1358,VALID,0,VALID,25.3584,VALID,338,VALID,0.0617188,
2009-11-18, 00:56:04,VALID,1000.73,VALID,0,VALID,89.2655,VALID,0,VALID,25.339,VALID,338,VALID,0.0851562,
2009-11-18, 00:57:04,VALID,1000.74,VALID,0,VALID,89.2579,VALID,0,VALID,25.3195,VALID,338,VALID,0.294141,
2009-11-18, 00:58:04,VALID,1000.71,VALID,0,VALID,89.3342,VALID,0,VALID,25.3195,VALID,338,VALID,0.273828,
2009-11-18, 00:59:04,VALID,1000.66,VALID,0,VALID,89.3494,VALID,0,VALID,25.2981,VALID,358,VALID,0.697656,
2009-11-18, 01:00:04,VALID,1000.64,VALID,0,VALID,89.2655,VALID,0,VALID,25.337,VALID,354,VALID,0.322656,
2009-11-18, 01:01:04,VALID,1000.58,VALID,0,VALID,89.1969,VALID,0.100563,VALID,25.3955,VALID,350,VALID,0.716406,
2009-11-18, 01:02:04,VALID,1000.6,VALID,0,VALID,88.9527,VALID,0,VALID,25.4539,VALID,345,VALID,0.892578,
2009-11-18, 01:03:04,VALID,1000.59,VALID,0,VALID,88.6552,VALID,0,VALID,25.5532,VALID,337,VALID,0.714844,
2009-11-18, 01:04:04,VALID,1000.59,VALID,0,VALID,88.3577,VALID,0,VALID,25.5902,VALID,347,VALID,0.512891,
2009-11-18, 01:05:04,VALID,1000.58,VALID,0,VALID,88.2661,VALID,0,VALID,25.6292,VALID,8,VALID,0.344531,
2009-11-18, 01:06:04,VALID,1000.57,VALID,0,VALID,88.1517,VALID,0,VALID,25.6876,VALID,329,VALID,0.708203,
2009-11-18, 01:07:04,VALID,1000.58,VALID,0,VALID,87.8847,VALID,0,VALID,25.7265,VALID,307,VALID,0.70625,
2009-11-18, 01:08:04,VALID,1000.54,VALID,0,VALID,87.694,VALID,0,VALID,25.785,VALID,344,VALID,0.448047,
2009-11-18, 01:09:04,VALID,1000.51,VALID,0,VALID,87.4422,VALID,0.100563,VALID,25.8239,VALID,326,VALID,0.517578,
2009-11-18, 01:10:04,VALID,1000.53,VALID,0,VALID,87.2057,VALID,0,VALID,25.8648,VALID,352,VALID,0.459375,
2009-11-18, 01:11:04,VALID,1000.48,VALID,0,VALID,87.0913,VALID,0,VALID,25.8823,VALID,352,VALID,0.45625,
2009-11-18, 01:12:04,VALID,1000.49,VALID,0,VALID,87.0608,VALID,0,VALID,25.9038,VALID,317,VALID,0.238672,
2009-11-18, 01:13:04,VALID,1000.52,VALID,0,VALID,86.8319,VALID,0,VALID,25.9232,VALID,310,VALID,0.177734,
2009-11-18, 01:14:04,VALID,1000.54,VALID,0,VALID,86.5878,VALID,0,VALID,25.9213,VALID,303,VALID,0.494141,
2009-11-18, 01:15:04,VALID,1000.61,VALID,0,VALID,86.4276,VALID,0,VALID,25.9408,VALID,281,VALID,1.05586,
2009-11-18, 01:16:04,VALID,1000.65,VALID,0,VALID,86.3971,VALID,0,VALID,25.9602,VALID,305,VALID,0.587109,
2009-11-18, 01:17:04,VALID,1000.66,VALID,0,VALID,86.2903,VALID,0,VALID,25.9797,VALID,292,VALID,0.571484,
2009-11-18, 01:18:04,VALID,1000.69,VALID,0,VALID,86.1072,VALID,0,VALID,25.9992,VALID,287,VALID,1.04219,
2009-11-18, 01:19:04,VALID,1000.68,VALID,0,VALID,86.0309,VALID,0,VALID,26.0401,VALID,298,VALID,0.780859,
2009-11-18, 01:20:04,VALID,1000.68,VALID,0,VALID,86.0461,VALID,0,VALID,26.0381,VALID,277,VALID,0.791797,
2009-11-18, 01:21:04,VALID,1000.66,VALID,0,VALID,85.8859,VALID,0,VALID,26.0576,VALID,300,VALID,0.769922,
2009-11-18, 01:22:04,VALID,1000.63,VALID,0,VALID,85.9927,VALID,0,VALID,26.0381,VALID,322,VALID,0.152344,
2009-11-18, 01:23:04,VALID,1000.68,VALID,0,VALID,85.9851,VALID,0,VALID,26.0791,VALID,314,VALID,0.633594,
2009-11-18, 01:24:04,VALID,1000.66,VALID,0,VALID,85.9622,VALID,0,VALID,26.0791,VALID,286,VALID,0.979297,
2009-11-18, 01:25:04,VALID,1000.64,VALID,0,VALID,86.008,VALID,0,VALID,26.0596,VALID,308,VALID,0.739062,
2009-11-18, 01:26:04,VALID,1000.62,VALID,0,VALID,86.0767,VALID,0,VALID,26.0187,VALID,271,VALID,0.437109,
2009-11-18, 01:27:04,VALID,1000.61,VALID,0,VALID,86.0919,VALID,0,VALID,26.0187,VALID,290,VALID,0.416406,
2009-11-18, 01:28:04,VALID,1000.58,VALID,0,VALID,86.1987,VALID,0,VALID,25.9797,VALID,350,VALID,0.848047,
2009-11-18, 01:29:04,VALID,1000.53,VALID,0,VALID,86.2369,VALID,0,VALID,25.9602,VALID,315,VALID,0.80625,
2009-11-18, 01:30:04,VALID,1000.47,VALID,0,VALID,86.4505,VALID,0,VALID,25.9408,VALID,356,VALID,0.135937,
2009-11-18, 01:31:04,VALID,1000.48,VALID,0,VALID,86.6488,VALID,0,VALID,25.9213,VALID,354,VALID,0.204688,
2009-11-18, 01:32:04,VALID,1000.48,VALID,0,VALID,86.5802,VALID,0,VALID,25.9427,VALID,273,VALID,0.718359,
2009-11-18, 01:33:04,VALID,1000.44,VALID,0,VALID,86.6107,VALID,0,VALID,25.9018,VALID,302,VALID,0.273438,
2009-11-18, 01:34:04,VALID,1000.42,VALID,0,VALID,86.7938,VALID,0,VALID,25.8823,VALID,304,VALID,0.199609,
2009-11-18, 01:35:04,VALID,1000.45,VALID,0,VALID,86.6946,VALID,0,VALID,25.8629,VALID,292,VALID,1.04102,
2009-11-18, 01:36:04,VALID,1000.46,VALID,0,VALID,86.7099,VALID,0,VALID,25.8843,VALID,289,VALID,1.12969,
2009-11-18, 01:37:04,VALID,1000.42,VALID,0,VALID,86.6641,VALID,0,VALID,25.8629,VALID,299,VALID,0.859766,
2009-11-18, 01:38:04,VALID,1000.43,VALID,0,VALID,86.5878,VALID,0,VALID,25.8843,VALID,300,VALID,0.816016,
2009-11-18, 01:39:04,VALID,1000.37,VALID,0,VALID,86.8395,VALID,0,VALID,25.8629,VALID,11,VALID,0.317578,
2009-11-18, 01:40:04,VALID,1000.35,VALID,0,VALID,86.8624,VALID,0,VALID,25.8648,VALID,304,VALID,0.269922,
2009-11-18, 01:41:04,VALID,1000.34,VALID,0,VALID,86.9158,VALID,0,VALID,25.8239,VALID,304,VALID,0.009375,
2009-11-18, 01:42:04,VALID,1000.36,VALID,0,VALID,87.0532,VALID,0,VALID,25.8064,VALID,285,VALID,0.458203,
2009-11-18, 01:43:04,VALID,1000.35,VALID,0,VALID,87.2286,VALID,0,VALID,25.8064,VALID,280,VALID,0.496484,
2009-11-18, 01:44:04,VALID,1000.38,VALID,0,VALID,87.5872,VALID,0,VALID,25.7674,VALID,224,VALID,0.576953,
2009-11-18, 01:45:04,VALID,1000.37,VALID,0,VALID,87.9,VALID,0,VALID,25.6895,VALID,224,VALID,0.120312,
2009-11-18, 01:46:04,VALID,1000.38,VALID,0,VALID,88.2356,VALID,0,VALID,25.67,VALID,272,VALID,0.423047,
2009-11-18, 01:47:04,VALID,1000.39,VALID,0,VALID,88.701,VALID,0,VALID,25.6292,VALID,273,VALID,0.228516,
2009-11-18, 01:48:04,VALID,1000.43,VALID,0,VALID,88.3729,VALID,0,VALID,25.6097,VALID,305,VALID,1.10234,
2009-11-18, 01:49:04,VALID,1000.4,VALID,0,VALID,88.5179,VALID,0,VALID,25.6506,VALID,267,VALID,0.732813,
2009-11-18, 01:50:04,VALID,1000.41,VALID,0,VALID,87.7703,VALID,0,VALID,25.6292,VALID,304,VALID,2.12734,
2009-11-18, 01:51:04,VALID,1000.48,VALID,0,VALID,87.5948,VALID,0,VALID,25.6895,VALID,265,VALID,1.20742,
2009-11-18, 01:52:04,VALID,1000.42,VALID,0,VALID,86.7709,VALID,0.100563,VALID,25.6486,VALID,260,VALID,0.815234,
2009-11-18, 01:53:04,VALID,1000.38,VALID,0,VALID,85.7944,VALID,0,VALID,25.67,VALID,288,VALID,1.38242,
2009-11-18, 01:54:04,VALID,1000.41,VALID,0,VALID,85.3061,VALID,0,VALID,25.6292,VALID,266,VALID,0.709375,
2009-11-18, 01:55:04,VALID,1000.39,VALID,0,VALID,84.1694,VALID,0,VALID,25.6506,VALID,296,VALID,1.36914,
2009-11-18, 01:56:04,VALID,1000.38,VALID,0,VALID,83.521,VALID,0,VALID,25.6311,VALID,293,VALID,1.52266,
2009-11-18, 01:57:04,VALID,1000.38,VALID,0,VALID,83.582,VALID,0,VALID,25.6097,VALID,339,VALID,0.977344,
2009-11-18, 01:58:04,VALID,1000.37,VALID,0,VALID,82.9793,VALID,0,VALID,25.5921,VALID,308,VALID,1.28477,
2009-11-18, 01:59:04,VALID,1000.37,VALID,0,VALID,82.7962,VALID,0,VALID,25.5727,VALID,302,VALID,1.63477,
2009-11-18, 02:00:04,VALID,1000.36,VALID,0,VALID,83.0785,VALID,0,VALID,25.5727,VALID,235,VALID,0.558594,
2009-11-18, 02:01:04,VALID,1000.33,VALID,0,VALID,81.9571,VALID,0,VALID,25.5532,VALID,296,VALID,1.26484,
2009-11-18, 02:02:04,VALID,1000.3,VALID,0,VALID,82.041,VALID,0,VALID,25.5727,VALID,293,VALID,1.04336,
2009-11-18, 02:03:04,VALID,1000.3,VALID,0,VALID,82.2851,VALID,0,VALID,25.6136,VALID,295,VALID,0.442969,
2009-11-18, 02:04:05,VALID,1000.26,VALID,0,VALID,82.2927,VALID,0,VALID,25.5727,VALID,347,VALID,0.889844,
2009-11-18, 02:05:05,VALID,1000.25,VALID,0,VALID,81.8579,VALID,0,VALID,25.5513,VALID,292,VALID,0.787109,
2009-11-18, 02:06:05,VALID,1000.26,VALID,0,VALID,82.3995,VALID,0,VALID,25.6136,VALID,298,VALID,0.193359,
2009-11-18, 02:07:05,VALID,1000.23,VALID,0,VALID,82.1936,VALID,0,VALID,25.5707,VALID,280,VALID,0.366406,
2009-11-18, 02:08:05,VALID,1000.24,VALID,0,VALID,82.3538,VALID,0,VALID,25.5921,VALID,335,VALID,0.357031,
2009-11-18, 02:09:05,VALID,1000.23,VALID,0,VALID,82.1936,VALID,0,VALID,25.5921,VALID,356,VALID,0.352734,
2009-11-18, 02:10:05,VALID,1000.2,VALID,0,VALID,82.2241,VALID,0,VALID,25.5727,VALID,357,VALID,0.55625,
2009-11-18, 02:11:05,VALID,1000.18,VALID,0,VALID,82.7352,VALID,0,VALID,25.5746,VALID,358,VALID,0.479688,
2009-11-18, 02:12:05,VALID,1000.14,VALID,0,VALID,82.575,VALID,0,VALID,25.5337,VALID,356,VALID,0.386719,
2009-11-18, 02:13:05,VALID,1000.19,VALID,0,VALID,82.7047,VALID,0,VALID,25.4948,VALID,356,VALID,0.462109,
2009-11-18, 02:14:05,VALID,1000.14,VALID,0,VALID,82.9259,VALID,0,VALID,25.4149,VALID,15,VALID,0.864062,
2009-11-18, 02:15:05,VALID,1000.12,VALID,0,VALID,83.8795,VALID,0,VALID,25.3974,VALID,354,VALID,0.553906,
2009-11-18, 02:16:05,VALID,1000.11,VALID,0,VALID,84.4059,VALID,0,VALID,25.337,VALID,355,VALID,0.330078,
2009-11-18, 02:17:05,VALID,1000.15,VALID,0,VALID,83.9787,VALID,0,VALID,25.3,VALID,355,VALID,0.198828,
2009-11-18, 02:18:05,VALID,1000.14,VALID,0,VALID,83.7956,VALID,0,VALID,25.2202,VALID,69,VALID,0.516797,
2009-11-18, 02:19:05,VALID,1000.16,VALID,0,VALID,84.3754,VALID,0,VALID,25.2221,VALID,69,VALID,0.380078,
2009-11-18, 02:20:05,VALID,1000.2,VALID,0,VALID,84.7035,VALID,0,VALID,25.2027,VALID,69,VALID,0.188281,
2009-11-18, 02:21:05,VALID,1000.23,VALID,0,VALID,84.9934,VALID,0,VALID,25.1832,VALID,69,VALID,0.125,
2009-11-18, 02:22:05,VALID,1000.24,VALID,0,VALID,85.1383,VALID,0,VALID,25.1637,VALID,69,VALID,0.096875,
2009-11-18, 02:23:05,VALID,1000.25,VALID,0,VALID,84.7569,VALID,0,VALID,25.1248,VALID,69,VALID,0.315625,
2009-11-18, 02:24:05,VALID,1000.28,VALID,0,VALID,85.1688,VALID,0,VALID,25.1229,VALID,69,VALID,0,
2009-11-18, 02:25:05,VALID,1000.28,VALID,0,VALID,85.535,VALID,0,VALID,25.1248,VALID,69,VALID,0,
2009-11-18, 02:26:05,VALID,1000.28,VALID,0,VALID,85.4358,VALID,0,VALID,25.1053,VALID,69,VALID,0,
2009-11-18, 02:27:05,VALID,1000.29,VALID,0,VALID,85.6571,VALID,0,VALID,25.0858,VALID,69,VALID,0.0242187,
2009-11-18, 02:28:05,VALID,1000.28,VALID,0,VALID,86.4123,VALID,0,VALID,25.0858,VALID,69,VALID,0.289844,
2009-11-18, 02:29:05,VALID,1000.26,VALID,0,VALID,86.1301,VALID,0,VALID,25.045,VALID,69,VALID,0.209766,
2009-11-18, 02:30:05,VALID,1000.25,VALID,0,VALID,86.4276,VALID,0,VALID,25.0663,VALID,69,VALID,0.344531,
2009-11-18, 02:31:05,VALID,1000.28,VALID,0,VALID,86.7785,VALID,0,VALID,25.0274,VALID,69,VALID,0.266797,
2009-11-18, 02:32:05,VALID,1000.26,VALID,0,VALID,86.8319,VALID,0,VALID,25.0079,VALID,69,VALID,0.386719,
2009-11-18, 02:33:05,VALID,1000.31,VALID,0,VALID,87.2896,VALID,0,VALID,24.9885,VALID,69,VALID,0.376953,
2009-11-18, 02:34:05,VALID,1000.24,VALID,0,VALID,87.6787,VALID,0,VALID,24.969,VALID,67,VALID,0.442187,
2009-11-18, 02:35:05,VALID,1000.29,VALID,0,VALID,87.3278,VALID,0,VALID,24.9282,VALID,67,VALID,0.331641,
2009-11-18, 02:36:05,VALID,1000.25,VALID,0,VALID,87.9305,VALID,0,VALID,24.9495,VALID,53,VALID,0.452344,
2009-11-18, 02:37:05,VALID,1000.29,VALID,0,VALID,87.8313,VALID,0,VALID,24.9709,VALID,16,VALID,0.760547,
2009-11-18, 02:38:05,VALID,1000.27,VALID,0,VALID,87.5948,VALID,0,VALID,24.9495,VALID,349,VALID,0.4,
2009-11-18, 02:39:05,VALID,1000.29,VALID,0,VALID,87.3202,VALID,0,VALID,24.9885,VALID,350,VALID,0.330078,
2009-11-18, 02:40:05,VALID,1000.27,VALID,0,VALID,86.9616,VALID,0,VALID,25.0469,VALID,6,VALID,0.582422,
2009-11-18, 02:41:05,VALID,1000.26,VALID,0,VALID,86.8167,VALID,0,VALID,25.1053,VALID,338,VALID,0.204297,
2009-11-18, 02:42:05,VALID,1000.25,VALID,0,VALID,86.6336,VALID,0,VALID,25.1442,VALID,341,VALID,0.635156,
2009-11-18, 02:43:05,VALID,1000.24,VALID,0,VALID,86.3208,VALID,0,VALID,25.1813,VALID,346,VALID,0.335156,
2009-11-18, 02:44:05,VALID,1000.27,VALID,0,VALID,86.2521,VALID,0,VALID,25.2416,VALID,346,VALID,0.0769531,
2009-11-18, 02:45:05,VALID,1000.26,VALID,0,VALID,86.1072,VALID,0,VALID,25.2611,VALID,346,VALID,0.144922,
2009-11-18, 02:46:05,VALID,1000.25,VALID,0,VALID,86.069,VALID,0,VALID,25.3,VALID,346,VALID,0.0105469,
2009-11-18, 02:47:05,VALID,1000.26,VALID,0,VALID,86.0767,VALID,0,VALID,25.3176,VALID,346,VALID,0.158594,
2009-11-18, 02:48:05,VALID,1000.3,VALID,0,VALID,86.0233,VALID,0,VALID,25.339,VALID,346,VALID,0,
2009-11-18, 02:49:05,VALID,1000.29,VALID,0,VALID,86.0538,VALID,0,VALID,25.3176,VALID,346,VALID,0,
2009-11-18, 02:50:05,VALID,1000.29,VALID,0,VALID,86.0385,VALID,0,VALID,25.339,VALID,346,VALID,0.254687,
2009-11-18, 02:51:05,VALID,1000.27,VALID,0,VALID,86.069,VALID,0,VALID,25.3604,VALID,342,VALID,0.0375,
2009-11-18, 02:52:05,VALID,1000.26,VALID,0,VALID,86.1224,VALID,0,VALID,25.3584,VALID,342,VALID,0.0914062,
2009-11-18, 02:53:05,VALID,1000.24,VALID,0,VALID,86.2598,VALID,0,VALID,25.3584,VALID,342,VALID,0.0585938,
2009-11-18, 02:54:05,VALID,1000.24,VALID,0,VALID,86.2826,VALID,0,VALID,25.3565,VALID,343,VALID,0.471875,
2009-11-18, 02:55:05,VALID,1000.26,VALID,0,VALID,86.3513,VALID,0,VALID,25.3779,VALID,343,VALID,0.0726563,
2009-11-18, 02:56:05,VALID,1000.25,VALID,0,VALID,86.5802,VALID,0,VALID,25.3565,VALID,1,VALID,0.819141,
2009-11-18, 02:57:05,VALID,1000.26,VALID,0,VALID,86.7251,VALID,0,VALID,25.3584,VALID,355,VALID,0.371875,
2009-11-18, 02:58:05,VALID,1000.23,VALID,0,VALID,86.7175,VALID,0,VALID,25.3584,VALID,324,VALID,0.980859,
2009-11-18, 02:59:05,VALID,1000.23,VALID,0,VALID,86.8243,VALID,0,VALID,25.3779,VALID,290,VALID,0.669922,
2009-11-18, 03:00:05,VALID,1000.19,VALID,0,VALID,86.809,VALID,0,VALID,25.376,VALID,355,VALID,0.596484,
2009-11-18, 03:01:05,VALID,1000.17,VALID,0,VALID,86.7938,VALID,0,VALID,25.4169,VALID,353,VALID,0.830469,
2009-11-18, 03:02:05,VALID,1000.16,VALID,0,VALID,86.9616,VALID,0,VALID,25.4149,VALID,306,VALID,0.285156,
2009-11-18, 03:03:05,VALID,1000.13,VALID,0,VALID,86.7251,VALID,0,VALID,25.4363,VALID,288,VALID,1.1375,
2009-11-18, 03:04:05,VALID,1000.16,VALID,0,VALID,86.4657,VALID,0,VALID,25.4149,VALID,290,VALID,0.971094,
2009-11-18, 03:05:05,VALID,1000.13,VALID,0,VALID,86.5573,VALID,0,VALID,25.4734,VALID,329,VALID,0.317187,
2009-11-18, 03:06:05,VALID,1000.15,VALID,0,VALID,86.5344,VALID,0,VALID,25.5142,VALID,344,VALID,0.515625,
2009-11-18, 03:07:05,VALID,1000.18,VALID,0,VALID,86.4428,VALID,0,VALID,25.4928,VALID,345,VALID,0.415234,
2009-11-18, 03:08:05,VALID,1000.2,VALID,0,VALID,86.4581,VALID,0,VALID,25.5123,VALID,351,VALID,0.323828,
2009-11-18, 03:09:05,VALID,1000.22,VALID,0,VALID,86.2979,VALID,0,VALID,25.5532,VALID,360,VALID,0.264453,
2009-11-18, 03:10:05,VALID,1000.23,VALID,0,VALID,86.3055,VALID,0,VALID,25.5727,VALID,306,VALID,0.4,
2009-11-18, 03:11:05,VALID,1000.25,VALID,0,VALID,86.481,VALID,0,VALID,25.5727,VALID,296,VALID,0.003125,
2009-11-18, 03:12:05,VALID,1000.26,VALID,0,VALID,86.6107,VALID,0,VALID,25.5707,VALID,296,VALID,0.135937,
2009-11-18, 03:13:05,VALID,1000.25,VALID,0,VALID,86.5115,VALID,0,VALID,25.5921,VALID,296,VALID,0,
2009-11-18, 03:14:05,VALID,1000.25,VALID,0,VALID,86.4505,VALID,0,VALID,25.5921,VALID,296,VALID,0.0136719,
2009-11-18, 03:15:05,VALID,1000.26,VALID,0,VALID,86.6412,VALID,0,VALID,25.5921,VALID,296,VALID,0,
2009-11-18, 03:16:05,VALID,1000.24,VALID,0,VALID,86.6565,VALID,0,VALID,25.5707,VALID,296,VALID,0.128125,
2009-11-18, 03:17:05,VALID,1000.26,VALID,0,VALID,86.6107,VALID,0,VALID,25.5707,VALID,296,VALID,0.257422,
2009-11-18, 03:18:05,VALID,1000.25,VALID,0,VALID,86.7556,VALID,0,VALID,25.6136,VALID,296,VALID,0,
2009-11-18, 03:19:05,VALID,1000.23,VALID,0,VALID,86.8548,VALID,0,VALID,25.5707,VALID,296,VALID,0,
2009-11-18, 03:20:05,VALID,1000.23,VALID,0,VALID,86.8853,VALID,0,VALID,25.5513,VALID,296,VALID,0.0015625,
2009-11-18, 03:21:05,VALID,1000.21,VALID,0,VALID,86.7099,VALID,0,VALID,25.5727,VALID,302,VALID,0.205469,
2009-11-18, 03:22:05,VALID,1000.25,VALID,0,VALID,86.8395,VALID,0,VALID,25.5727,VALID,302,VALID,0.269922,
2009-11-18, 03:23:05,VALID,1000.25,VALID,0,VALID,86.8167,VALID,0,VALID,25.5532,VALID,354,VALID,0.424219,
2009-11-18, 03:24:05,VALID,1000.26,VALID,0,VALID,86.809,VALID,0,VALID,25.5727,VALID,340,VALID,0.167187,
2009-11-18, 03:25:05,VALID,1000.26,VALID,0,VALID,86.8167,VALID,0,VALID,25.5727,VALID,346,VALID,0.130469,
2009-11-18, 03:26:05,VALID,1000.28,VALID,0,VALID,86.7404,VALID,0,VALID,25.5727,VALID,5,VALID,0.6125,
2009-11-18, 03:27:05,VALID,1000.24,VALID,0,VALID,86.4886,VALID,0,VALID,25.5902,VALID,357,VALID,0.216016,
2009-11-18, 03:28:05,VALID,1000.25,VALID,0,VALID,86.4047,VALID,0,VALID,25.6097,VALID,351,VALID,0.348437,
2009-11-18, 03:29:05,VALID,1000.26,VALID,0,VALID,86.4276,VALID,0,VALID,25.6506,VALID,351,VALID,0.435937,
2009-11-18, 03:30:05,VALID,1000.2,VALID,0,VALID,86.542,VALID,0,VALID,25.6506,VALID,350,VALID,0.00429688,
2009-11-18, 03:31:05,VALID,1000.2,VALID,0,VALID,86.7175,VALID,0,VALID,25.6506,VALID,349,VALID,0,
2009-11-18, 03:32:05,VALID,1000.19,VALID,0,VALID,86.5039,VALID,0,VALID,25.6525,VALID,299,VALID,0.785156,
2009-11-18, 03:33:05,VALID,1000.13,VALID,0,VALID,86.069,VALID,0,VALID,25.6506,VALID,293,VALID,0.581641,
2009-11-18, 03:34:05,VALID,1000.1,VALID,0,VALID,86.069,VALID,0,VALID,25.6681,VALID,298,VALID,0.0722656,
2009-11-18, 03:35:05,VALID,1000.07,VALID,0,VALID,86.0538,VALID,0,VALID,25.709,VALID,298,VALID,0.01875,
2009-11-18, 03:36:05,VALID,1000.04,VALID,0,VALID,85.947,VALID,0.100563,VALID,25.7071,VALID,288,VALID,0.348437,
2009-11-18, 03:37:05,VALID,1000.02,VALID,0,VALID,86.1301,VALID,0,VALID,25.7265,VALID,275,VALID,0.386719,
2009-11-18, 03:38:05,VALID,1000.03,VALID,0,VALID,86.2826,VALID,0,VALID,25.748,VALID,275,VALID,0,
2009-11-18, 03:39:05,VALID,1000.03,VALID,0,VALID,85.9546,VALID,0,VALID,25.7285,VALID,275,VALID,0.0648438,
2009-11-18, 03:40:05,VALID,1000.02,VALID,0,VALID,85.8936,VALID,0,VALID,25.7285,VALID,275,VALID,0.288672,
2009-11-18, 03:41:05,VALID,1000.03,VALID,0,VALID,85.9927,VALID,0,VALID,25.748,VALID,276,VALID,0.135937,
2009-11-18, 03:42:05,VALID,1000.03,VALID,0,VALID,86.0385,VALID,0,VALID,25.748,VALID,335,VALID,0.365234,
2009-11-18, 03:43:05,VALID,1000.03,VALID,0,VALID,86.0004,VALID,0,VALID,25.7285,VALID,335,VALID,0.297656,
2009-11-18, 03:44:05,VALID,1000.04,VALID,0,VALID,86.4505,VALID,0,VALID,25.7285,VALID,335,VALID,0.467187,
2009-11-18, 03:45:05,VALID,1000.03,VALID,0,VALID,86.4886,VALID,0,VALID,25.709,VALID,343,VALID,0.605078,
2009-11-18, 03:46:05,VALID,1000.02,VALID,0,VALID,86.9387,VALID,0,VALID,25.6876,VALID,343,VALID,0.332422,